Waarnemingen

Advertentie
Mijn weer
Ponferrada, Spanje (8053): temperatuur & dauwpunt: 12.11.2018 17:00:00 - 18.11.2018 17:00:00 (CET)Ponferrada, Spanje (8053): windsnelheid: 12.11.2018 17:00:00 - 18.11.2018 17:00:00 (CET)Ponferrada, Spanje (8053): windrichting: 12.11.2018 17:00:00 - 18.11.2018 17:00:00 (CET)Ponferrada, Spanje (8053): luchtdruk: 12.11.2018 17:00:00 - 18.11.2018 17:00:00 (CET)Ponferrada, Spanje (8053): zicht: 12.11.2018 17:00:00 - 18.11.2018 17:00:00 (CET)Ponferrada, Spanje (8053): neerslag: 12.11.2018 17:00:00 - 18.11.2018 17:00:00 (CET)
Datum & Tijd tt [°C] td [°C] ff [km/u] ff [kn] dd ppp [hPa] vv [km] rr [mm]
18.11.2018 17:00:00 - - - - - - - -
18.11.2018 16:00:00 - - - - - - - -
18.11.2018 15:00:00 - - - - - - - -
18.11.2018 14:00:00 - - - - - - - -
18.11.2018 13:00:00 - - - - - - - -
18.11.2018 12:00:00 - - - - - - - -
18.11.2018 11:00:00 - - - - - - - -
18.11.2018 10:00:00 - - - - - - - -
18.11.2018 09:00:00 - - - - - - - -
18.11.2018 08:00:00 - - - - - - - -
18.11.2018 07:00:00 - - - - - - - -
18.11.2018 06:00:00 - - - - - - - -
18.11.2018 05:00:00 - - - - - - - -
18.11.2018 04:00:00 - - - - - - - -
18.11.2018 03:00:00 - - - - - - - -
18.11.2018 02:00:00 - - - - - - - -
18.11.2018 01:00:00 - - - - - - - -
18.11.2018 00:00:00 - - - - - - - -
17.11.2018 23:00:00 - - - - - - - -
17.11.2018 22:00:00 - - - - - - - -
17.11.2018 21:00:00 - - - - - - - -
17.11.2018 20:00:00 - - - - - - - -
17.11.2018 19:00:00 - - - - - - - -
17.11.2018 18:00:00 - - - - - - - -
17.11.2018 17:00:00 - - - - - - - -
17.11.2018 16:00:00 - - - - - - - -
17.11.2018 15:00:00 - - - - - - - -
17.11.2018 14:00:00 - - - - - - - -
17.11.2018 13:00:00 - - - - - - - -
17.11.2018 12:00:00 15,1 8,3 18 10 OZO 1014,2 20 0,0
17.11.2018 11:00:00 14,5 8,2 16 9 OZO 1014,6 20 0,0
17.11.2018 10:00:00 13,4 8,5 9 5 OZO 1015,1 20 -
17.11.2018 09:00:00 11,9 8,0 9 5 OZO 1015,3 20 0,0
17.11.2018 08:00:00 11,7 8,0 15 8 OZO 1014,9 20 0,0
17.11.2018 07:00:00 11,9 8,2 16 9 OZO 1014,6 20 -
17.11.2018 06:00:00 8,1 6,7 2 1 ZO 1015,7 12 0,0
17.11.2018 05:00:00 9,7 8,1 5 3 ZO 1015,4 19 0,0
17.11.2018 04:00:00 8,4 7,3 4 2 WNW 1016,4 11 -
17.11.2018 03:00:00 8,9 7,2 2 1 NW 1016,1 13 0,0
17.11.2018 02:00:00 8,2 7,0 2 1 ONO 1016,1 10 0,0
17.11.2018 01:00:00 8,7 7,1 2 1 O 1016,4 13 -
17.11.2018 00:00:00 9,7 7,6 2 1 ONO 1016,2 15 0,0
16.11.2018 23:00:00 11,5 8,2 4 2 WNW 1016,2 14 0,0
16.11.2018 22:00:00 13,8 8,8 4 2 ZZW 1015,7 20 -
16.11.2018 21:00:00 14,4 8,8 9 5 O 1015,6 20 0,0
16.11.2018 20:00:00 14,8 8,5 13 7 OZO 1015,8 20 0,0
16.11.2018 19:00:00 14,6 8,5 13 7 OZO 1015,5 20 -
16.11.2018 18:00:00 15,0 8,7 11 6 OZO 1015,6 20 0,0
16.11.2018 17:00:00 15,9 9,1 13 7 OZO 1015,2 20 0,0
16.11.2018 16:00:00 17,4 9,3 13 7 O 1015,0 20 -
16.11.2018 15:00:00 16,1 9,5 13 7 O 1015,9 20 0,0
16.11.2018 14:00:00 15,1 9,5 4 2 ZW 1017,1 - 0,0
16.11.2018 13:00:00 13,4 8,9 4 2 ZW 1018,5 18 -
16.11.2018 12:00:00 12,7 8,6 4 2 ZW 1019,7 18 0,0
16.11.2018 11:00:00 10,4 7,8 5 3 WNW 1020,5 12 0,0
16.11.2018 10:00:00 8,1 7,3 4 2 ZZO 1021,1 10 -
16.11.2018 09:00:00 5,0 4,7 2 1 Z 1021,7 - 0,0
16.11.2018 08:00:00 4,6 4,2 2 1 ZO 1021,1 6 0,0
16.11.2018 07:00:00 5,0 4,6 0 0 N 1020,6 5 -
16.11.2018 06:00:00 5,3 4,7 4 2 O 1020,6 4,0 0,0
16.11.2018 05:00:00 5,7 5,1 2 1 N 1020,7 6 0,0
16.11.2018 04:00:00 6,2 5,6 2 1 ZZW 1021,0 7 -
16.11.2018 03:00:00 6,3 5,6 2 1 OZO 1021,1 4,5 0,0
16.11.2018 02:00:00 6,8 5,9 2 1 OZO 1020,8 7 0,0
16.11.2018 01:00:00 7,3 6,2 2 1 WZW 1020,7 8 -
16.11.2018 00:00:00 8,3 7,1 4 2 Z 1020,8 14 0,0
15.11.2018 23:00:00 8,8 7,4 4 2 NW 1021,1 13 0,0
15.11.2018 22:00:00 10,0 7,4 4 2 O 1020,3 15 -
15.11.2018 21:00:00 11,8 7,9 4 2 NW 1019,8 14 0,0
15.11.2018 20:00:00 13,0 8,3 4 2 OZO 1018,9 19 0,0
15.11.2018 19:00:00 14,2 8,4 8 4 OZO 1018,0 20 -
15.11.2018 18:00:00 15,6 8,3 8 4 O 1016,8 20 0,0
15.11.2018 17:00:00 17,4 8,0 11 6 ZO 1016,2 20 0,0
15.11.2018 16:00:00 18,3 8,0 13 7 ZO 1015,7 20 -
15.11.2018 15:00:00 17,5 9,1 11 6 O 1016,2 20 0,0
15.11.2018 14:00:00 17,7 9,1 11 6 O 1016,5 20 0,0
15.11.2018 13:00:00 14,9 9,9 8 4 O 1017,7 18 -
15.11.2018 12:00:00 10,7 8,8 4 2 WNW 1019,3 14 0,0
15.11.2018 11:00:00 9,4 8,2 2 1 WZW 1019,5 12 0,0
15.11.2018 10:00:00 8,3 7,2 2 1 W 1019,9 10 -
15.11.2018 09:00:00 7,7 6,9 4 2 NNW 1019,7 8 0,0
15.11.2018 08:00:00 7,4 6,7 2 1 ZZO 1019,4 9 0,0
15.11.2018 07:00:00 7,2 6,8 2 1 NO 1018,7 10 -
15.11.2018 06:00:00 7,1 6,2 2 1 NW 1018,3 10 0,0
15.11.2018 05:00:00 7,9 6,5 2 1 NNW 1018,0 11 0,0
15.11.2018 04:00:00 8,6 7,4 2 1 W 1017,9 13 -
15.11.2018 03:00:00 8,8 7,2 4 2 WNW 1018,1 13 0,0
15.11.2018 02:00:00 9,1 7,5 2 1 NW 1018,3 16 0,0
15.11.2018 01:00:00 8,4 7,5 2 1 N 1019,0 16 -
15.11.2018 00:00:00 7,8 6,6 0 0 N 1019,4 17 0,0
14.11.2018 23:00:00 8,5 6,6 2 1 Z 1019,6 16 0,0
14.11.2018 22:00:00 10,6 7,5 2 1 W 1019,4 16 -
14.11.2018 21:00:00 12,2 7,9 9 5 O 1018,9 20 0,0
14.11.2018 20:00:00 12,6 7,7 13 7 O 1019,1 20 0,0
14.11.2018 19:00:00 13,3 7,9 15 8 O 1018,8 20 -
14.11.2018 18:00:00 14,5 8,2 16 9 O 1018,2 20 0,0
14.11.2018 17:00:00 16,2 8,4 15 8 O 1017,9 20 0,0
14.11.2018 16:00:00 16,8 8,7 15 8 O 1017,9 20 -
14.11.2018 15:00:00 17,1 9,5 9 5 OZO 1018,5 20 0,0
14.11.2018 14:00:00 14,2 9,2 8 4 W 1020,1 18 0,0
14.11.2018 13:00:00 10,2 7,6 4 2 ZW 1022,2 15 -
14.11.2018 12:00:00 7,3 5,9 5 3 WNW 1023,9 4,4 0,0
14.11.2018 11:00:00 4,6 4,6 2 1 OZO 1025,2 1,5 0,0
14.11.2018 10:00:00 2,6 2,6 2 1 NW 1026,1 0,2 -
14.11.2018 09:00:00 2,1 2,0 2 1 NNW 1026,1 0,3 0,0
14.11.2018 08:00:00 2,3 2,2 0 0 N 1025,9 0,1 0,0
14.11.2018 07:00:00 2,6 2,5 4 2 NW 1026,0 0,2 -
14.11.2018 06:00:00 2,7 2,6 2 1 Z 1025,8 0,2 0,0
14.11.2018 05:00:00 2,7 2,3 2 1 N 1026,1 0,5 0,0
14.11.2018 04:00:00 3,2 2,8 2 1 NW 1026,3 2,1 -
14.11.2018 03:00:00 3,3 2,9 2 1 ZO 1026,5 7 0,0
14.11.2018 02:00:00 3,7 3,3 2 1 O 1026,8 4,6 0,0
14.11.2018 01:00:00 4,1 3,5 2 1 OZO 1027,3 6 -
14.11.2018 00:00:00 4,6 4,0 2 1 OZO 1027,3 - 0,0
13.11.2018 23:00:00 5,4 4,7 0 0 N 1027,5 6 0,0
13.11.2018 22:00:00 5,7 5,0 2 1 OZO 1027,4 6 -
13.11.2018 21:00:00 6,5 5,1 2 1 ONO 1027,1 7 0,0
13.11.2018 20:00:00 7,3 6,1 4 2 ZZO 1026,8 13 0,0
13.11.2018 19:00:00 8,7 6,7 2 1 O 1026,5 13 -
13.11.2018 18:00:00 11,4 7,1 2 1 O 1025,3 19 0,0
13.11.2018 17:00:00 12,9 6,9 4 2 W 1024,8 20 0,0
13.11.2018 16:00:00 12,1 6,6 4 2 WNW 1025,0 19 -
13.11.2018 15:00:00 9,9 5,7 4 2 Z 1026,1 20 0,0
13.11.2018 14:00:00 7,8 5,1 4 2 O 1027,2 20 0,0
13.11.2018 13:00:00 5,7 3,9 4 2 WZW 1028,9 12 -
13.11.2018 12:00:00 4,4 3,2 5 3 WNW 1030,3 14 0,0
13.11.2018 11:00:00 3,7 3,1 2 1 O 1030,2 15 0,0
13.11.2018 10:00:00 3,2 2,9 2 1 ZW 1030,1 8 -
13.11.2018 09:00:00 2,8 2,7 4 2 ONO 1029,7 17 0,0
13.11.2018 08:00:00 2,6 2,6 4 2 O 1029,4 15 0,0
13.11.2018 07:00:00 1,9 1,8 4 2 OZO 1029,3 5 -
13.11.2018 06:00:00 2,1 2,0 2 1 ZO 1028,7 0,3 0,0
13.11.2018 05:00:00 2,3 2,2 5 3 OZO 1028,2 0,3 0,0
13.11.2018 04:00:00 2,2 2,1 4 2 O 1027,8 0,1 -
13.11.2018 03:00:00 1,8 1,5 2 1 ONO 1027,5 0,1 0,0
13.11.2018 02:00:00 1,6 1,2 2 1 O 1027,2 8 0,0
13.11.2018 01:00:00 2,0 1,4 2 1 NO 1026,9 7 -
13.11.2018 00:00:00 2,7 2,0 2 1 WNW 1026,3 12 0,0
12.11.2018 23:00:00 3,4 2,5 2 1 ZO 1025,7 9 0,0
12.11.2018 22:00:00 4,3 3,4 4 2 Z 1024,8 17 -
12.11.2018 21:00:00 5,2 4,0 2 1 ZZO 1023,6 16 0,0
12.11.2018 20:00:00 5,9 4,7 5 3 ZZO 1022,6 10 0,0
12.11.2018 19:00:00 7,0 5,3 2 1 O 1021,5 12 -
12.11.2018 18:00:00 9,8 6,3 2 1 O 1019,7 20 0,0
12.11.2018 17:00:00 11,0 5,5 2 1 ZW 1018,9 20 0,0

tt = temperatuur
td = dauwpunt
ff = windsnelheid
dd = windrichting
ppp = luchtdruk
vv = zicht
rr = neerslag

Weerstations in de omgeving